HEMAVAN current weather conditions

sailwx.info

Wind from 150 at 7 knots

Air temperature -2.0° C
Visibility: greater than 0.4 NM
Dewpoint -2.0° C
Present weather: Snow.

Last reported at 2015-Jan-27 21:20 UTC.
Time now 2015-Jan-27 23:06 UTC

Location: N 65°48' E 015°05'.
View on Google Maps.

See reports from other nearby stations

  
Tides and Currents Weather Stations Pressure Air Temp Water Temp Dewpoint Dewpoint Depression Visibility Wind Speed Wind Dir Waves Ship Positions
date/time (UTC)wind fromknots sea level pressurealtimeterstation pressurevisibilityair tempwater tempwave heightnotes
2015-Jan-27 21:20 150 7 0.4-2.0 Snow.
2015-Jan-27 20:50 150 7 0.8-2.0 Light snow.
2015-Jan-27 20:20 150 7 0.8-2.0 Light snow.
2015-Jan-27 19:50 150 7 0.5-3.0 Light snow.
2015-Jan-27 19:20 140 5 1.3-3.0 Light snow.
2015-Jan-27 18:50 140 6 1.5-3.0 Light snow.
2015-Jan-27 18:20 130 5 1.3-3.0 Light snow.
2015-Jan-27 17:50 130 6 1.3-3.0 Light snow.
2015-Jan-27 17:20 130 5 1.9-3.0 Light snow.
2015-Jan-27 16:50 140 4 1.3-3.0 Light snow.
2015-Jan-27 16:20 130 4 2.5-3.0 Light snow.
2015-Jan-27 15:50 130 4 0.9-3.0 Light snow.
2015-Jan-27 15:20 130 4 1.0-3.0 Light snow.
2015-Jan-27 14:50 120 4 0.8-3.0 Light snow.
2015-Jan-27 14:20 140 4 3.2-3.0 Light snow.
2015-Jan-27 13:50 150 3 2.3-3.0 Light snow.
2015-Jan-27 13:20 150 4 0.6-3.0 Snow.
2015-Jan-27 12:50 150 5 1.6-3.0 Light ice pellets.
2015-Jan-27 12:20 140 5 1.7-3.0 Light snow.
2015-Jan-27 11:50 080 3 2.7-2.0 Light snow.
2015-Jan-27 11:20 5.4-2.0
2015-Jan-27 10:50 300 6 5.4-1.0
2015-Jan-27 10:20 290 6 5.4-1.0
2015-Jan-27 09:50 290 3 5.4-1.0
2015-Jan-27 09:20 070 1 5.4-2.0
2015-Jan-27 08:50 300 4 3.2-2.0 Light snow.
2015-Jan-27 08:20 320 2 0.8-2.0 Light snow.
2015-Jan-27 07:50 120 2 2.5-2.0 Light snow.
2015-Jan-27 07:20 140 3 4.3-2.0 Light snow.
2015-Jan-27 06:50 150 3 2.3-3.0 Light snow.
2015-Jan-27 06:20 030 3 4.3-2.0 Light snow.
2015-Jan-27 05:50 2.4-2.0 Light snow.
2015-Jan-27 05:20 5.4-2.0 Freezing precipitation.
2015-Jan-27 04:50 360 3 5.4-2.0
2015-Jan-27 04:20 2.5-2.0 Light snow.
2015-Jan-27 03:50 5.4-2.0
2015-Jan-27 03:20 010 4 5.4-2.0 Snow grains.
2015-Jan-27 02:50 310 7 3.8-1.0 Light snow.
2015-Jan-27 02:20 320 6 5.4-1.0 Freezing precipitation.
2015-Jan-27 01:50 350 6 1.3-2.0 Light snow.
2015-Jan-27 01:20 260 2 1.9-1.0 Light snow.
2015-Jan-27 00:50 330 1 1.8-2.0 Light snow.
2015-Jan-27 00:20 3.2-4.0 Light ice pellets.
2015-Jan-26 23:50 2.6-4.0 Freezing precipitation.
2015-Jan-26 23:20 5.4-1.0 Freezing precipitation.
2015-Jan-26 22:50 110 4 5.4-4.0
2015-Jan-26 22:20 150 4 5.4-3.0
2015-Jan-26 21:50 150 6 5.4-3.0
2015-Jan-26 21:20 140 6 5.4-5.0 Light snow.
2015-Jan-26 20:50 120 6 5.4-3.0
2015-Jan-26 20:20 130 6 5.4-3.0 Light snow.
2015-Jan-26 19:50 140 5 5.4-5.0
2015-Jan-26 19:20 160 6 5.4-5.0
2015-Jan-26 18:50 150 7 5.4-5.0
2015-Jan-26 18:20 150 6 5.4-6.0
2015-Jan-26 17:50 5.4-5.0
2015-Jan-26 17:20 150 5 5.4-6.0
2015-Jan-26 16:50 150 4 5.4-5.0
2015-Jan-26 16:20 5.4-6.0
2015-Jan-26 15:50 150 5 5.4-6.0
2015-Jan-26 15:20 160 3 5.4-5.0
2015-Jan-26 14:50 130 6 4.9-4.0 Snow grains.
2015-Jan-26 14:20 150 6 1.1-4.0 Light snow.
2015-Jan-26 13:50 130 9 2.5-4.0 Freezing precipitation.
2015-Jan-26 13:20 140 7 5.4-4.0 Light snow.
2015-Jan-26 12:50 110 5 5.4-4.0
2015-Jan-26 12:20 130 8 5.4-4.0 Light snow.
2015-Jan-26 11:50 140 7 5.4-5.0
2015-Jan-26 11:20 160 5 5.4-5.0
2015-Jan-26 10:50 130 7 5.4-5.0
2015-Jan-26 10:20 120 8 5.4-4.0
2015-Jan-26 09:50 120 10 5.4-4.0
2015-Jan-26 09:20 140 7 5.4-5.0
2015-Jan-26 08:50 140 7 5.4-5.0
2015-Jan-26 08:20 120 8 5.4-5.0
2015-Jan-26 07:50 120 7 5.4-5.0
2015-Jan-26 07:20 120 7 5.4-4.0
2015-Jan-26 06:50 120 6 5.4-5.0 Snow grains.
2015-Jan-26 06:20 130 6 5.4-5.0
2015-Jan-26 05:50 140 9 5.4-5.0
2015-Jan-26 05:20 120 7 5.4-5.0 Snow grains.
2015-Jan-26 04:50 130 9 1.8-5.0 Light snow.
2015-Jan-26 04:20 130 6 5.4-5.0 Snow grains.
2015-Jan-26 03:50 140 10 5.4-5.0 Light snow.
2015-Jan-26 03:20 110 8 1.7-5.0 Light snow.
2015-Jan-26 02:50 140 11 1.2-5.0 Light snow.
2015-Jan-26 02:20 140 12 1.3-5.0 Light snow.
2015-Jan-26 01:50 140 8 0.9-5.0 Light snow.
2015-Jan-26 01:20 110 7 2.1-4.0 Light snow.
2015-Jan-26 00:50 120 6 2.7-6.0 Light snow.
2015-Jan-26 00:20 140 6 1.6-5.0 Light snow.
2015-Jan-25 23:50 130 7 1.4-6.0 Light snow.
2015-Jan-25 23:20 140 7 3.2-5.0 Light snow.